This demonstration page uses our WeatherBlox Daily Observations layout. Learn more.

Left ArrowRight Arrow

30.21309, -93.2044

Hourly Observations for December 28, 2022

Temp ( °F °C ) Dew Point ( °F °C ) Humidity (%) Winds ( mph kmh ) Pressure ( in mb ) Visibility ( mi km ) Precip ( " mm )
12:15 am 00:15 Clear 34 1.2 32 0.1 92 92 ESE 3 6 30.14 1021 10 16 0.00 0.00
12:35 am 00:35 Clear 36 2.4 34 1.2 92 92 ESE 3 6 30.13 1020 10 16 0.00 0.00
12:55 am 00:55 Clear with Mist and Fog 35 1.8 34 0.9 94 94 E 5 7 30.12 1020 7 11 0.00 0.00
1:15 am 01:15 Clear 37 2.8 35 1.9 94 94 E 5 7 30.11 1020 10 16 0.00 0.00
1:35 am 01:35 Clear 36 2.3 35 1.4 94 94 Calm 30.11 1020 7 11 0.00 0.00
1:55 am 01:55 Clear 37 2.8 35 1.9 94 94 E 3 6 30.10 1019 10 16 0.00 0.00
2:15 am 02:15 Clear 37 2.5 35 1.4 92 92 Calm 30.10 1019 10 16 0.00 0.00
2:35 am 02:35 Clear 37 3 35 1.8 92 92 ENE 5 7 30.10 1019 10 16 0.00 0.00
2:55 am 02:55 Clear 37 3 35 1.8 92 92 NNE 3 6 30.11 1020 10 16 0.00 0.00
3:15 am 03:15 Clear 37 2.6 34 1.3 91 91 Calm 30.11 1020 10 16 0.00 0.00
3:35 am 03:35 Clear 37 2.7 35 1.4 91 91 NE 3 6 30.11 1020 10 16 0.00 0.00
3:55 am 03:55 Clear 37 2.5 34 1.2 91 91 NE 3 6 30.11 1020 10 16 0.00 0.00
4:15 am 04:15 Clear 37 2.7 35 1.4 91 91 ENE 3 6 30.11 1020 10 16 0.00 0.00
4:35 am 04:35 Clear 34 1.3 32 0.2 92 92 Calm 30.11 1020 10 16 0.00 0.00
4:55 am 04:55 Clear with Mist and Fog 34 1.2 33 0.3 94 94 ENE 3 6 30.10 1019 7 11 0.00 0.00
5:15 am 05:15 Clear with Mist and Fog 35 1.8 34 0.9 94 94 Calm 30.10 1019 7 11 0.00 0.00
5:35 am 05:35 Clear with Mist and Fog 35 1.9 34 1.1 94 94 Calm 30.10 1019 7 11 0.00 0.00
6:00 am 06:00 Clear 36 2 34 1 93 93 Calm 30.10 1019 7 11 0.00 0.00
6:52 am 06:52 Clear 37 3 36 2 93 93 Calm 30.09 1019 7 11 0.00 0.00
7:45 am 07:45 Sunny 37 3 36 2 93 93 Calm 30.10 1019 10 16 0.00 0.00
8:53 am 08:53 Sunny 48 9 45 7 87 87 Calm 30.10 1019 10 16 0.00 0.00
9:45 am 09:45 Sunny 55 13 52 11 88 88 SE 9 15 30.11 1020 10 16 0.00 0.00
10:45 am 10:45 Sunny 64 18 54 12 68 68 SSE 12 19 30.10 1019 10 16 0.00 0.00
11:55 am 11:55 Sunny 68 20 54 12 60 60 SSE 15 24 30.07 1018 10 16 0.00 0.00
12:45 pm 12:45 Sunny 72 22 55 13 57 57 SSE 14 22 30.04 1017 10 16 0.00 0.00
1:47 pm 13:47 Partly Cloudy 73 23 55 13 53 53 S 16 26 30.01 1016 10 16 0.00 0.00
2:51 pm 14:51 Mostly Cloudy 72 22 61 16 69 69 SSE 18 30 30.00 1016 10 16 0.00 0.00
3:47 pm 15:47 Mostly Cloudy 70 21 61 16 73 73 SE 13 20 30.00 1016 10 16 0.00 0.00
4:47 pm 16:47 Partly Cloudy 70 21 61 16 73 73 SSE 9 15 30.00 1016 10 16 0.00 0.00
5:50 pm 17:50 Cloudy 66 19 63 17 88 88 SSE 14 22 30.01 1016 10 16 0.00 0.00
6:47 pm 18:47 Mostly Cloudy 63 17 61 16 94 94 SSE 12 19 30.01 1016 10 16 0.00 0.00
7:47 pm 19:47 Mostly Cloudy 63 17 61 16 94 94 SSE 14 22 30.01 1016 10 16 0.00 0.00
8:47 pm 20:47 Mostly Cloudy 63 17 61 16 94 94 SSE 12 19 30.01 1016 10 16 0.00 0.00
9:47 pm 21:47 Cloudy 63 17 61 16 94 94 SSE 14 22 30.01 1016 10 16 0.00 0.00
10:15 pm 22:15 Cloudy 63 17.2 61 16.2 94 94 SSE 12 19 30.02 1017 10 16 0.00 0.00
10:35 pm 22:35 Cloudy with Mist and Fog 63 17.1 61 16.1 94 94 SSE 10 17 30.02 1017 7 11 0.00 0.00
10:55 pm 22:55 Cloudy 63 17.3 62 16.4 94 94 SSE 9 15 30.02 1017 7 11 0.00 0.00
11:15 pm 23:15 Cloudy 63 17.4 62 16.5 94 94 SSE 9 15 30.02 1017 7 11 0.00 0.00
11:35 pm 23:35 Cloudy 64 17.6 62 16.6 94 94 SSE 9 15 30.02 1017 10 16 0.00 0.00
11:55 pm 23:55 Cloudy 64 18 63 17 94 94 SSE 12 19 30.02 1017 10 16 0.00 0.00

Powered by AerisWeather